User: anonymous   Login
Location: Mountain_View
(35.6670°N, 81.4000°W)
Time: 15:32:49
(UTC-05:00)
Language:

ISS - Orbit

View from above orbital plane
View from above orbital plane
View from above satellite
View from above satellite

Ground track
Ground track

The orbit data is extracted from the following two-line orbital elements,

1 25544U 98067A   19346.18923389  .00016717  00000-0  10270-3 0  9126
2 25544  51.6386 198.8419 0007193  26.7763 333.3757 15.50151916  2863
Epoch (UTC): 12 December 2019 04:32:29
Eccentricity: 0.0007193
inclination: 51.6386°
perigee height: 411 km
apogee height: 421 km
right ascension of ascending node: 198.8419°
argument of perigee: 26.7763°
revolutions per day: 15.50151916
mean anomaly at epoch: 333.3757°
orbit number at epoch: 286

The dashed part of the orbit path shows where the satellite is in the earth's shadow,  

DLR